Lake Granby Weather Center

Moon Phase Calendar



Lake Granby Water Level
Online Cameras

 


      

Current Conditions in Granby
1/18/2022 12:14:41 PM

33°F
Feels Like 29
Clouds
Humidity
46%
Pressure
29.91"
Wind
4.7 mph (W)
Dew Point
17°F
UV Index
2/10 (Low)
Visibility
6 mi

Hourly Forecast

Date & Time Tue, Jan 18
12:00 PM
Tue, Jan 18
1:00 PM
Tue, Jan 18
2:00 PM
Tue, Jan 18
3:00 PM
Tue, Jan 18
4:00 PM
Tue, Jan 18
5:00 PM
Tue, Jan 18
6:00 PM
Tue, Jan 18
7:00 PM
Tue, Jan 18
8:00 PM
Tue, Jan 18
9:00 PM
Tue, Jan 18
10:00 PM
Tue, Jan 18
11:00 PM
Wed, Jan 19
12:00 AM
Wed, Jan 19
1:00 AM
Wed, Jan 19
2:00 AM
Wed, Jan 19
3:00 AM
Wed, Jan 19
4:00 AM
Wed, Jan 19
5:00 AM
Wed, Jan 19
6:00 AM
Wed, Jan 19
7:00 AM
Wed, Jan 19
8:00 AM
Wed, Jan 19
9:00 AM
Wed, Jan 19
10:00 AM
Wed, Jan 19
11:00 AM
Wed, Jan 19
12:00 PM
Wed, Jan 19
1:00 PM
Wed, Jan 19
2:00 PM
Wed, Jan 19
3:00 PM
Wed, Jan 19
4:00 PM
Wed, Jan 19
5:00 PM
Wed, Jan 19
6:00 PM
Wed, Jan 19
7:00 PM
Wed, Jan 19
8:00 PM
Wed, Jan 19
9:00 PM
Wed, Jan 19
10:00 PM
Wed, Jan 19
11:00 PM
Thu, Jan 20
12:00 AM
Thu, Jan 20
1:00 AM
Thu, Jan 20
2:00 AM
Thu, Jan 20
3:00 AM
Thu, Jan 20
4:00 AM
Thu, Jan 20
5:00 AM
Thu, Jan 20
6:00 AM
Thu, Jan 20
7:00 AM
Thu, Jan 20
8:00 AM
Thu, Jan 20
9:00 AM
Thu, Jan 20
10:00 AM
Thu, Jan 20
11:00 AM
Condition
Clouds

Clouds

Clouds

Clouds

Clouds

Clouds

Clouds

Clouds

Clouds

Clouds

Clouds

Clouds

Clouds

Clouds

Clouds

Clouds

Clouds

Clouds

Clouds

Clouds

Clouds

Clouds

Clouds

Clouds

Clouds

Clouds

Snow

Snow

Snow

Clouds

Clouds

Clouds

Clouds

Clouds

Clouds

Clouds

Clouds

Clouds

Clouds

Clouds

Clouds

Clouds

Clouds

Clouds

Clouds

Clouds

Clouds

Clouds
Temperature 33°F33°F32°F31°F29°F21°F18°F19°F19°F18°F17°F15°F14°F14°F14°F13°F13°F12°F11°F11°F13°F20°F23°F25°F26°F26°F26°F26°F25°F19°F14°F13°F12°F11°F10°F10°F10°F9°F9°F10°F10°F11°F12°F11°F12°F16°F18°F20°F
Feels Like 29°F28°F27°F27°F25°F21°F18°F19°F19°F18°F17°F15°F14°F14°F14°F13°F13°F12°F11°F11°F13°F15°F17°F19°F19°F19°F18°F18°F17°F14°F14°F13°F12°F11°F10°F10°F10°F9°F9°F10°F10°F11°F12°F11°F12°F9°F11°F12°F
Cloudiness 85%86%88%90%92%95%100%100%100%100%100%100%99%99%100%100%100%99%99%94%95%94%92%91%95%96%97%98%98%97%73%81%87%90%91%89%81%85%85%89%91%92%100%100%100%100%98%96%
Visibility 6 mi6 mi6 mi6 mi6 mi6 mi6 mi6 mi6 mi6 mi6 mi6 mi6 mi6 mi6 mi6 mi6 mi6 mi6 mi6 mi6 mi6 mi6 mi6 mi6 mi5 mi3 mi5 mi6 mi6 mi6 mi6 mi6 mi6 mi6 mi6 mi5 mi4 mi2 mi1 mi1 mi0 mi0 mi0 mi0 mi0 mi1 mi2 mi
Precipitation 0%0%0%0%0%0%10%10%8%6%6%2%0%0%0%0%0%0%6%9%10%13%13%13%14%18%30%33%37%37%25%25%20%17%19%17%13%13%9%11%11%11%4%4%0%0%0%0%
Humidity 46%51%55%61%76%91%91%89%88%89%90%91%92%93%94%95%96%97%97%96%95%88%81%74%73%75%77%76%81%93%97%97%97%98%98%98%98%98%99%99%98%98%98%98%97%93%88%84%
Dew Point 17°F18°F19°F21°F23°F15°F12°F12°F12°F11°F10°F8°F8°F8°F8°F8°F7°F6°F5°F5°F7°F13°F15°F15°F15°F16°F17°F16°F17°F13°F8°F7°F7°F5°F5°F4°F4°F3°F3°F4°F5°F5°F6°F6°F7°F10°F11°F12°F
Pressure 29.91"29.91"29.88"29.88"29.91"30.06"30.15"30.15"30.15"30.18"30.18"30.24"30.27"30.24"30.27"30.3"30.3"30.33"30.36"30.36"30.36"30.21"30.18"30.12"30.09"30.06"30.06"30.06"30.09"30.21"30.33"30.39"30.42"30.45"30.47"30.5"30.5"30.53"30.53"30.53"30.5"30.53"30.5"30.53"30.53"30.47"30.45"30.42"
Wind Speed 4.7 mph5.1 mph4.9 mph4.5 mph3.2 mph0.6 mph1.2 mph0.5 mph0.5 mph0.6 mph0.7 mph0.7 mph0.5 mph0.2 mph0.1 mph0.5 mph0.8 mph0.9 mph1 mph1 mph0.8 mph3 mph4.2 mph4.9 mph6 mph7.2 mph8.2 mph8.2 mph6.4 mph3.7 mph2.5 mph2.2 mph2 mph2 mph2 mph1.6 mph1.8 mph1.5 mph1.7 mph1.9 mph2.1 mph2.2 mph2.8 mph2.6 mph2.7 mph3.8 mph4.7 mph5.7 mph
Wind
Direction
265°
W
271°
W
263°
W
260°
W
252°
WSW
285°
WNW
70°
ENE
80°
E
106°
ESE
89°
E
79°
E
76°
ENE
116°
ESE
73°
ENE
281°
W
256°
WSW
227°
SW
200°
SSW
212°
SSW
218°
SW
242°
WSW
259°
W
256°
WSW
262°
W
264°
W
271°
W
275°
W
278°
W
278°
W
274°
W
300°
WNW
307°
NW
304°
NW
295°
WNW
302°
WNW
295°
WNW
295°
WNW
289°
WNW
293°
WNW
259°
W
271°
W
266°
W
267°
W
264°
W
262°
W
257°
WSW
258°
WSW
261°
W

Daily Forecast

Date High Low Precip. Humidity
Today
Jan 18

Clouds
33 °F
13 °F
10%
46%
Wednesday
Jan 19

Snow
26 °F
10 °F
37%
73%
Thursday
Jan 20

Snow
23 °F
9 °F
20%
84%
Friday
Jan 21

Snow
27 °F
10 °F
100%
87%
Saturday
Jan 22

Clouds
22 °F
0 °F
0%
80%
Sunday
Jan 23

Clouds
27 °F
5 °F
0%
81%
Monday
Jan 24

Clouds
28 °F
7 °F
0%
77%
Tuesday
Jan 25

Snow
25 °F
11 °F
70%
82%
Wednesday
Jan 26

Snow
25 °F
6 °F
24%
84%
Thursday
Jan 27

Clear
31 °F
7 °F
0%
73%
Friday
Jan 28

Clouds
34 °F
12 °F
0%
66%
Saturday
Jan 29

Clouds
33 °F
14 °F
0%
71%
Sunday
Jan 30

Clouds
30 °F
13 °F
0%
76%
Monday
Jan 31

Clouds
31 °F
13 °F
13%
72%
Tuesday
Feb 1

Snow
28 °F
12 °F
90%
82%
Wednesday
Feb 2

Snow
19 °F
4 °F
35%
75%

Temperature 8-14 Day Outlook



Precipitation 8-14 Day Outlook




Quick Links
Lake Granby News
Lake Granby Photos
Lake Granby Videos




About Us
Contact Us
Site Map
Search Site
Advertise With Us
   
Granby.USLakes.info
THE LAKE GRANBY WEBSITE

Copyright 2022, Lakes Online
Privacy    |    Legal